Saguache, CO

8:37 PM MST on December 16, 2017 (GMT -0700)
Saguache

Weather History for K04V - June, 2014

Change the Weather History Date:

Sunday, June 8, 2014

  Actual Average (KALS) Record (KALS)
Temperature  
Mean Temperature 54 °F -  
Max Temperature 64 °F 74 °F 90 °F (2010)
Min Temperature 44 °F 40 °F 27 °F (1945)
Degree Days  
Heating Degree Days 11    
Growing Degree Days 4 (Base 50)    
Moisture  
Dew Point 35 °F    
Average Humidity 52    
Maximum Humidity 82    
Minimum Humidity 27    
Precipitation  
Precipitation 0.12 in - - ()
Sea Level Pressure  
Sea Level Pressure 30.14 in    
Wind  
Wind Speed 10 mph (NW)    
Max Wind Speed 39 mph    
Max Gust Speed 48 mph    
Visibility 10 miles    
Events Thunderstorm    
Averages and records for this station are not official NWS values.
T = Trace of Precipitation, MM = Missing Value Source: NWS Daily Summary

Daily Weather History Graph

Daily Weather History Graph

Search for Another Location

Airport or City:

Trip Planner

Search our weather history database for the weather conditions in past years. The results will help you decide how hot, cold, wet, or windy it might be!

Date:

Astronomy

Jun. 08, 2014 Rise Set
Actual Time 5:41 AM MDT 8:26 PM MDT
Civil Twilight 5:10 AM MDT 8:57 PM MDT
Nautical Twilight 4:31 AM MDT 9:36 PM MDT
Astronomical Twilight 3:47 AM MDT 10:20 PM MDT
Moon 3:51 PM MDT (6/8) 2:31 AM MDT (6/8)
Length of Visible Light 15h 47m
Length of Day
14h 44m
Waxing Gibbous, 77% of the Moon is Illuminated
Jun 8
Waxing Gibbous
Jun 12
Full
Jun 19
Last Quarter
Jun 27
New
Jul 5
First Quarter

Hourly Weather History & Observations

Time (MDT) Temp. Windchill Dew Point Humidity Pressure Visibility Wind Dir Wind Speed Gust Speed Precip Events Conditions
12:14 AM 57.2 °F - 35.6 °F 44% 30.19 in 10.0 mi ENE 5.8 mph - N/A   Scattered Clouds
12:30 AM 57.2 °F - 33.8 °F 41% 30.17 in 10.0 mi NNE 4.6 mph - N/A   Scattered Clouds
12:55 AM 53.6 °F - 37.4 °F 54% 30.17 in 10.0 mi WSW 5.8 mph - N/A   Clear
1:14 AM 53.6 °F - 37.4 °F 54% 30.17 in 10.0 mi WSW 4.6 mph - N/A   Clear
1:32 AM 51.8 °F - 37.4 °F 58% 30.17 in 10.0 mi SW 3.5 mph - N/A   Clear
1:54 AM 50.0 °F - 33.8 °F 54% 30.17 in 10.0 mi North 4.6 mph - N/A   Clear
2:15 AM 50.0 °F - 33.8 °F 54% 30.17 in 10.0 mi NNE 9.2 mph - N/A   Clear
2:54 AM 50.0 °F - 33.8 °F 54% 30.16 in 10.0 mi WSW 5.8 mph - N/A   Clear
3:14 AM 50.0 °F - 33.8 °F 54% 30.16 in 10.0 mi North 6.9 mph - N/A   Clear
3:32 AM 48.2 °F - 33.8 °F 58% 30.16 in 10.0 mi NW 6.9 mph - N/A   Scattered Clouds
3:54 AM 48.2 °F - 33.8 °F 58% 30.16 in 10.0 mi NW 3.5 mph - N/A   Mostly Cloudy
4:14 AM 48.2 °F - 33.8 °F 58% 30.16 in 10.0 mi North 4.6 mph - N/A   Mostly Cloudy
4:32 AM 46.4 °F 43.5 °F 33.8 °F 62% 30.16 in 10.0 mi WNW 5.8 mph - N/A   Scattered Clouds
4:54 AM 46.4 °F 43.5 °F 33.8 °F 62% 30.16 in 10.0 mi NNW 5.8 mph - N/A   Mostly Cloudy
5:14 AM 46.4 °F 45.2 °F 32.0 °F 57% 30.16 in 10.0 mi NNW 3.5 mph - N/A   Scattered Clouds
5:32 AM 44.6 °F 40.7 °F 32.0 °F 61% 30.16 in 10.0 mi North 6.9 mph - N/A   Scattered Clouds
5:52 AM 44.6 °F 41.4 °F 32.0 °F 61% 30.16 in 10.0 mi North 5.8 mph - N/A   Clear
6:15 AM 46.4 °F 42.9 °F 32.0 °F 57% 30.16 in 10.0 mi NNW 6.9 mph - N/A   Clear
6:33 AM 46.4 °F 42.4 °F 32.0 °F 57% 30.16 in 10.0 mi NW 8.1 mph - N/A   Clear
6:55 AM 48.2 °F - 33.8 °F 58% 30.16 in 10.0 mi NNW 8.1 mph - N/A   Clear
7:15 AM 51.8 °F - 33.8 °F 50% 30.16 in 10.0 mi NW 9.2 mph - N/A   Clear
7:35 AM 53.6 °F - 33.8 °F 47% 30.16 in 10.0 mi WNW 5.8 mph - N/A   Clear
7:54 AM 55.4 °F - 35.6 °F 47% 30.16 in 10.0 mi Calm Calm - N/A   Clear
8:12 AM 57.2 °F - 37.4 °F 48% 30.16 in 10.0 mi SSE 3.5 mph - N/A   Clear
8:35 AM 59.0 °F - 37.4 °F 45% 30.16 in 10.0 mi SSE 4.6 mph - N/A   Clear
8:55 AM 59.0 °F - 39.2 °F 48% 30.15 in 10.0 mi SSE 8.1 mph - N/A   Clear
9:15 AM 59.0 °F - 39.2 °F 48% 30.14 in 10.0 mi South 10.4 mph - N/A   Clear
9:33 AM 60.8 °F - 39.2 °F 45% 30.14 in 10.0 mi South 10.4 mph - N/A   Clear
9:55 AM 60.8 °F - 39.2 °F 45% 30.13 in 10.0 mi South 9.2 mph - N/A   Clear
10:15 AM 62.6 °F - 39.2 °F 42% 30.11 in 10.0 mi South 10.4 mph 16.1 mph N/A   Clear
10:29 AM 62.6 °F - 39.2 °F 42% 30.11 in 10.0 mi South 10.4 mph 18.4 mph N/A   Clear
10:55 AM 64.4 °F - 39.2 °F 40% 30.08 in 10.0 mi South 11.5 mph 17.3 mph N/A   Clear
11:32 AM 62.6 °F - 37.4 °F 39% 30.05 in 10.0 mi SSE 10.4 mph - N/A   Clear
11:54 AM 62.6 °F - 37.4 °F 39% 30.09 in 10.0 mi NW 11.5 mph - N/A Thunderstorm Mostly Cloudy
12:14 PM 46.4 °F 39.0 °F 39.2 °F 76% 30.15 in 1.0 mi NNW 19.6 mph 35.7 mph 0.10 in Thunderstorm Thunderstorm
12:35 PM 50.0 °F - 42.8 °F 76% 30.16 in 4.0 mi NNW 24.2 mph 36.8 mph 0.11 in   Overcast
12:54 PM 50.0 °F - 42.8 °F 76% 30.17 in 7.0 mi NW 16.1 mph 31.1 mph 0.12 in Thunderstorm Overcast
1:10 PM 50.0 °F - 44.6 °F 82% 30.14 in 10.0 mi NW 13.8 mph - N/A Thunderstorm Overcast
1:32 PM 51.8 °F - 42.8 °F 71% 30.14 in 10.0 mi WNW 18.4 mph 24.2 mph N/A Thunderstorm Mostly Cloudy
1:54 PM 53.6 °F - 39.2 °F 58% 30.14 in 10.0 mi NW 27.6 mph 39.1 mph N/A   Mostly Cloudy
2:14 PM 55.4 °F - 39.2 °F 54% 30.11 in 10.0 mi NW 24.2 mph 33.4 mph N/A   Scattered Clouds
2:34 PM 55.4 °F - 37.4 °F 51% 30.09 in 10.0 mi NNW 21.9 mph 25.3 mph N/A   Clear
2:54 PM 57.2 °F - 39.2 °F 51% 30.08 in 10.0 mi NW 17.3 mph - N/A   Clear
3:11 PM 60.8 °F - 39.2 °F 45% 30.06 in 10.0 mi NW 13.8 mph 17.3 mph N/A   Clear
3:34 PM 62.6 °F - 32.0 °F 32% 30.03 in 10.0 mi NW 26.5 mph 35.7 mph N/A   Clear
3:55 PM 62.6 °F - 32.0 °F 32% 30.04 in 10.0 mi NW 23.0 mph 32.2 mph N/A   Clear
4:15 PM 64.4 °F - 33.8 °F 32% 30.03 in 10.0 mi North 23.0 mph 31.1 mph N/A   Clear
4:33 PM 64.4 °F - 30.2 °F 28% 30.03 in 10.0 mi NNW 25.3 mph 36.8 mph N/A   Scattered Clouds
4:54 PM 60.8 °F - 28.4 °F 29% 30.04 in 10.0 mi WNW 29.9 mph 48.3 mph N/A   Scattered Clouds
5:14 PM 55.4 °F - 30.2 °F 38% 30.07 in 10.0 mi West 39.1 mph 47.2 mph N/A   Mostly Cloudy
5:35 PM 59.0 °F - 24.8 °F 27% 30.07 in 10.0 mi WNW 32.2 mph 40.3 mph N/A   Mostly Cloudy
5:54 PM 53.6 °F - 32.0 °F 44% 30.11 in 10.0 mi NW 28.8 mph 48.3 mph N/A   Mostly Cloudy
6:15 PM 55.4 °F - 30.2 °F 38% 30.10 in 10.0 mi NNW 31.1 mph 39.1 mph N/A   Scattered Clouds
6:34 PM 55.4 °F - 30.2 °F 38% 30.11 in 10.0 mi NW 15.0 mph 25.3 mph N/A   Scattered Clouds
6:54 PM 55.4 °F - 30.2 °F 38% 30.12 in 10.0 mi North 11.5 mph 23.0 mph N/A   Clear
7:15 PM 55.4 °F - 32.0 °F 41% 30.13 in 10.0 mi NW 24.2 mph 32.2 mph N/A   Scattered Clouds
7:35 PM 55.4 °F - 32.0 °F 41% 30.13 in 10.0 mi NNW 16.1 mph 28.8 mph N/A   Scattered Clouds
7:55 PM 53.6 °F - 33.8 °F 47% 30.14 in 10.0 mi North 18.4 mph 25.3 mph N/A   Clear
8:35 PM 48.2 °F - 33.8 °F 58% 30.17 in 10.0 mi North 21.9 mph 32.2 mph N/A   Clear
8:54 PM 48.2 °F - 33.8 °F 58% 30.18 in 10.0 mi North 21.9 mph 28.8 mph N/A   Clear
9:14 PM 46.4 °F 39.5 °F 35.6 °F 66% 30.20 in 10.0 mi NNW 17.3 mph 27.6 mph N/A   Scattered Clouds
9:30 PM 46.4 °F 40.4 °F 33.8 °F 62% 30.20 in 10.0 mi NNW 13.8 mph 23.0 mph N/A   Scattered Clouds
9:55 PM 44.6 °F 37.4 °F 35.6 °F 71% 30.19 in 10.0 mi NW 16.1 mph 21.9 mph N/A   Mostly Cloudy
10:14 PM 44.6 °F 38.4 °F 33.8 °F 66% 30.20 in 10.0 mi NW 12.7 mph - N/A   Mostly Cloudy
10:34 PM 44.6 °F 38.1 °F 33.8 °F 66% 30.21 in 10.0 mi NNW 13.8 mph 18.4 mph N/A   Scattered Clouds
10:54 PM 44.6 °F 37.2 °F 33.8 °F 66% 30.19 in 10.0 mi NW 17.3 mph - N/A   Clear
11:12 PM 44.6 °F 38.4 °F 33.8 °F 66% 30.19 in 10.0 mi NNW 12.7 mph - N/A   Clear
11:35 PM 44.6 °F 38.8 °F 33.8 °F 66% 30.20 in 10.0 mi North 11.5 mph - N/A   Clear
11:55 PM 44.6 °F 42.2 °F 33.8 °F 66% 30.21 in 10.0 mi NNW 4.6 mph - N/A   Scattered Clouds